STARLINK-32592, 62035

Orbit data source: Space-Track

STARLINK-32592, 62035 is a payload satellite owned by SpaceX/Seattle (US) in LEO that was launched on Thu, 21 Nov 2024 UTC via an FALCON 9 launch vehicle from the Air Force Eastern Test Range (AFETR). Payloads include a variety of satellites, spacecraft, and rockets equipped with specific instruments for various scientific and technological missions. These include communications satellites like Starlink; space stations such as the ISS; scientific satellites like the Hubble; Earth observation satellites from companies like Planet Labs, Umbra, and HawkEye 360; GPS; miniature CubeSats for education and research; and military/defense satellites.

Loading next visibility...
STARLINK-32592 details
Identifier
62035, 2024-216D
Orbit
LEO
Last TLE update5 days ago
Origin
Flag of USSpaceX/Seattle (US)
ManufacturerSpaceX/Seattle
MissionOperational spacecraft
Bus & MotorSTARLINK V2M, Unknown motor
Mass730 kg wet, ~700 kg dry
Launch date (UTC)
2024-11-21 (1 month ago)
Launch vehicle
FALCON 9
Launch site
Air Force Eastern Test Range (AFETR)
Object type
Payload
Rocket body
Debris
Shape & HBRUnknown
Radar Cross SectionLarge (>1 m²)

Expand to show TLE details & history

TLE from 5 days ago
0 STARLINK-32592
1 62035U 24216D   24356.72797448 -.00001559  00000-0 -20754-4 0  9993
2 62035  42.9990 259.2961 0001433 274.2917  85.7779 15.50586487  5881
Epoch: 2024-12-21T17:28Z
Definitive object data (Epoch: 2024-12-21T17:28:16.995Z)
Latitude-0.00003°
Longitude-93.54971°
Altitude414.714 km
Speed7.664 km/s
True Right ascension17h 17m 11s
True Declination0° 00' 00"
Sunlit
Object was in daylight at TLE epoch
Visualization TLE readout
Latitude-36.96914°
Longitude-174.38757°
Altitude424.865 km
Speed7.657 km/s
Apparent Right ascension16h 03m 55s
Apparent Declination-67° 40' 51"
Sunlit
Object is in daylight
Visualization observer readout
Local Sidereal Time09:24:50
Azimuth150.746° SSE
Elevation-40.018°
Doppler factor1
Orbital elements
Apogee altitude417.951 km
Perigee altitude416.004 km
Semi-major axis6,795.114 km
Eccentricity0.0001433
Inclination42.999°
RAAN259.2961°
Arg. of periapsis274.2917°
True anomaly85.79428°
Mean anomaly85.7779°
Eccentric anomaly85.78609°
Mean motion3.87479 °/min
BSTAR-0.000020754
Orbital period92.91 mins
Loading maneuver chart data...
Loading historical data...
Loading historical data...
Loading historical data...
Loading historical data...
Loading historical data...
Loading historical data...
Loading historical data...

STARLINK-32592 Visibility forecast

Observer location: undefined°, undefined

Span
Click to sort rows by Start time (UTC) header in descending order
Start Az.
Max El. time (UTC)
Max El. Az.
Max El.
End time (UTC)
End Az.
4 mins2024-12-26 19:51:43.017Z239.546° WSW2024-12-26 19:53:43.017Z107.94° ESE42.39°2024-12-26 19:55:43.017Z75.587° E
5 mins2024-12-26 21:28:43.017Z285.707° WNW2024-12-26 21:30:43.017Z341.323° N36.463°2024-12-26 21:33:43.017Z70.35° E
5 mins2024-12-26 23:06:43.017Z295.317° NW2024-12-26 23:08:43.017Z32.369° NE42.421°2024-12-26 23:11:43.017Z97.128° ESE
4 mins2024-12-27 00:44:43.017Z248.668° W2024-12-27 00:45:43.017Z215.947° SW27.47°2024-12-27 00:48:43.017Z146.669° SSE
|